Location: Navarre
(52.9016°N, 113.4144°W)
Time: 13:07:16
(UTC+00:00)

Envisat - Pass Details

Date: 06 December 2021
Orbit: 764 x 766 km, 98.2° (Epoch: 23 January)

Event Time Altitude Azimuth Distance (km) Brightness Sun altitude
Rises 14:15:12 0° 7° (N) 3,248 6.1 -10.6°
Reaches altitude 10° 14:17:54 10° 354° (N) 2,317 5.2 -10.3°
Maximum altitude 14:21:52 24° 303° (WNW) 1,571 4.0 -9.7°
Drops below altitude 10° 14:25:50 10° 251° (WSW) 2,305 5.1 -9.2°
Sets 14:28:31 0° 238° (WSW) 3,227 5.9 -8.8°
